Regional Weather Roundup
Issued by NWS

Home | Current Version | Previous Version | Text Only | Print | Product List | Glossary Off
Versions: 1 2 3 4 5 6 7 8 9 10 11 12 13 14 15 16 17 18 19 20 21 22 23 24 25 26 27 28 29 30 31 32 33 34 35 36 37 38 39 40 41 42 43 44 45 46 47 48 49 50

000
ASUS43 KDTX 011301
RWRMI
MICHIGAN HOURLY REGIONAL WEATHER ROUNDUP
NATIONAL WEATHER SERVICE DETROIT/PONTIAC MI
900 AM EDT WED JUL 01 2015

NOTE: "FAIR" INDICATES FEW OR NO CLOUDS BELOW 12,000 FEET WITH NO
SIGNIFICANT WEATHER AND/OR OBSTRUCTION TO VISIBILITY.

MIZ047>049-052>055-059>063-066>070-074>076-081>083-011400-
SOUTHEAST LOWER MICHIGAN

CITY           SKY/WX    TMP DP  RH WIND       PRES   REMARKS
ADRIAN         CLOUDY    63  59  87 N5        29.90R
ALMA           CLOUDY    57  55  95 W6        29.90S
ANN ARBOR      CLOUDY    63  59  87 NW8       29.88R
BAD AXE        CLOUDY    62  58  89 W6        29.87R
CARO           CLOUDY    58  57  96 NW8       29.87S FOG
DETROIT CITY   PTSUNNY   66  59  78 N5        29.86S
DETROIT        PTSUNNY   67  60  78 NW5       29.87R
FLINT          CLOUDY    60  56  86 NW12      29.89R
GROSSE ILE     PTSUNNY   66  63  88 W5        29.85S
HILLSDALE      CLOUDY    58  58 100 NW9       29.92R FOG
HOWELL         CLOUDY    60  58  94 NW6       29.89R

CITY           SKY/WX    TMP DP  RH WIND       PRES   REMARKS
JACKSON        CLOUDY    59  58  96 NW8       29.90R FOG
LAMBERTVILLE   CLOUDY    64  60  86 W6        29.90R
LANSING        CLOUDY    58  55  90 NW7       29.91R
LAPEER         CLOUDY    60  58  92 NW6       29.88R FOG
MASON          CLOUDY    56  56  97 W7        29.91R FOG
MONROE         CLOUDY    64  62  91 W7        29.88R FOG
MT. CLEMENS    PTSUNNY   64  60  85 NW6       29.85R
PONTIAC        CLOUDY    62  59  90 NW9       29.86S
PORT HOPE        N/A     61  59  93 VRB3      29.84R
PORT HURON     CLOUDY    61  59  94 NW3       29.86R
TRI CITIES     CLOUDY    58  53  84 NW7       29.90R
MIDLAND        CLOUDY    58  55  88 W3        29.88S
TROY           PTSUNNY   65  60  84 NW3       29.88S
SAGINAW HB     CLOUDY    59  59 100 W6        29.88S
$$
MIZ043>046-050>051-056>058-064>065-071>073-077>080-011400-
SOUTHWEST LOWER MICHIGAN

CITY           SKY/WX    TMP DP  RH WIND       PRES   REMARKS
BATTLE CREEK   CLOUDY    58  55  90 W9        29.93R
BENTON HARBOR  PTSUNNY   59  52  77 VRB5      29.96R
BIG RAPIDS     CLOUDY    54  48  82 NW5       29.91S
COLDWATER      CLOUDY    58  56  94 W6        29.93R
FREMONT        PTSUNNY   55  51  85 W6        29.93R
HOLLAND        PTSUNNY   59  51  75 NW6       29.95R
GRAND RAPIDS   CLOUDY    56  52  86 NW8       29.93R
IONIA          CLOUDY    57  55  91 NW9       29.91R
KALAMAZOO      CLOUDY    57  53  86 NW10      29.94R
LUDINGTON      CLOUDY    55  51  86 N8        29.94R
MARSHALL       CLOUDY    59  56  89 W8        29.91S
MOUNT PLEASANT CLOUDY    56  53  88 NW5       29.89S
MUSKEGON       PTSUNNY   59  51  75 W7        29.94S
SOUTH HAVEN    CLOUDY    58  52  81 N9        29.96R
$$
MIZ016>042-011400-
NORTHERN LOWER MICHIGAN

CITY           SKY/WX    TMP DP  RH WIND       PRES   REMARKS
ALPENA         CLOUDY    57  55  93 W5        29.87S FOG
BEAVER ISLAND  CLOUDY    49  47  93 NW8       29.93R
BELLAIRE       CLOUDY    54  51  90 CALM      29.92S
CADILLAC       CLOUDY    52  48  87 W7        29.91S
CHARLEVOIX     FOG       53  53  99 NW8       29.94R VSB 1
FRANKFORT      CLOUDY    53  46  79 N7        29.93S
GAYLORD        FOG       50  50 100 W7        29.90R VSB 1/2
GRAYLING       CLOUDY    52  50  93 NW8       29.91R FOG
HARBOR SPRINGS CLOUDY    54  53  98 CALM      29.90S FOG
HOUGHTON LAKE  CLOUDY    51  50  96 NW7       29.91R
MANISTEE       CLOUDY    52  46  82 N9G16     29.94R
OSCODA         CLOUDY    61  56  85 NW7       29.85S
PELLSTON       CLOUDY    55  53  93 NW7       29.90R
ROGERS CITY    CLOUDY    56  56  97 NW6       29.88S FOG
TRAVERSE CITY  DRIZZLE   52  49  89 W7        29.91S
$$
MIZ007>008-015-011400-
EASTERN UPPER MICHIGAN

CITY           SKY/WX    TMP DP  RH WIND       PRES   REMARKS
KINROSS        PTSUNNY   54  52  94 NE6       29.90R
MACKINAC ISLAN CLOUDY    54  54 100 N3        29.89R FOG
NEWBERRY       CLOUDY    46  45  97 NW7       29.94R FOG
S. S. MARIE    CLOUDY    54  48  80 N7        29.90R
MUNISING         N/A     47  44  90 NW14      29.97R
$$
MIZ004>006-011>014-085-011400-
CENTRAL UPPER MICHIGAN

CITY           SKY/WX    TMP DP  RH WIND       PRES   REMARKS
MANISTIQUE     CLOUDY    48  44  87 N13       29.95S
ESCANABA       CLOUDY    48  43  81 N8        29.97R
MENOMINEE      CLOUDY    48  43  81 N7        29.98R
SAWYER-GWINN   SUNNY     48  41  76 N14       29.99R
$$
MIZ001>003-009>011-084-011400-
WESTERN UPPER MICHIGAN

CITY           SKY/WX    TMP DP  RH WIND       PRES   REMARKS
IRON MOUNTAIN  SUNNY     50  43  77 N9        29.98S
HOUGHTON       SUNNY     56  43  61 N5        30.02R
COPPER HARBOR    N/A     53  44  71 N9        30.02R
IRONWOOD       SUNNY     48  46  93 CALM      30.01S
$$

ABBREVIATIONS USED IN REMARKS
   TC - TEMPERATURE IN CELSIUS
  WCI - WIND CHILL INDEX
   HX - HEAT INDEX
  VSB - VISIBILITY



USA.gov is the U.S. government's official web portal to all federal, state and local government web resources and services.